Weather History for KCVO - April, 2014

Change the Weather History Date:

Sunday, April 27, 2014

  Actual Average Record
Temperature  
Mean Temperature 48 °F -  
Max Temperature 55 °F 63 °F 80 °F (2005)
Min Temperature 42 °F 41 °F 37 °F (1999)
Degree Days  
Heating Degree Days 16    
Moisture  
Dew Point 43 °F    
Average Humidity 81    
Maximum Humidity 93    
Minimum Humidity 63    
Precipitation  
Precipitation 0.41 in - - ()
Sea Level Pressure  
Sea Level Pressure 30.00 in    
Wind  
Wind Speed 8 mph (SW)    
Max Wind Speed 18 mph    
Max Gust Speed 34 mph    
Visibility 10 miles    
Events      
Averages and records for this station are not official NWS values.
T = Trace of Precipitation, MM = Missing Value Source: NWS Daily Summary

Daily Weather History Graph

Daily Weather History Graph

Search for Another Location

Airport or City:

Trip Planner

Search our weather history database for the weather conditions in past years. The results will help you decide how hot, cold, wet, or windy it might be!

Date:

Astronomy

Apr. 27, 2014 Rise Set
Actual Time 6:09 AM PDT 8:12 PM PDT
Civil Twilight 5:37 AM PDT 8:44 PM PDT
Nautical Twilight 4:59 AM PDT 9:23 PM PDT
Astronomical Twilight 4:16 AM PDT 10:06 PM PDT
Moon 5:17 AM PDT (4/27) 6:49 PM PDT (4/27)
Length of Visible Light 15h 06m
Length of Day
14h 03m
Waning Crescent, 3% of the Moon is Illuminated
Apr 27
Waning Crescent
Apr 28
New
May 6
First Quarter
May 14
Full
May 21
Last Quarter

Hourly Weather History & Observations

Time (PDT) Temp. Windchill Dew Point Humidity Pressure Visibility Wind Dir Wind Speed Gust Speed Precip Events Conditions
12:15 AM 46.4 °F 41.5 °F 42.8 °F 87% 29.79 in 10.0 mi SSW 10.4 mph - N/A   Mostly Cloudy
12:35 AM 46.4 °F 43.5 °F 42.8 °F 87% 29.79 in 10.0 mi SSW 5.8 mph - 0.01 in   Overcast
12:55 AM 46.4 °F 44.3 °F 42.8 °F 87% 29.81 in 10.0 mi SW 4.6 mph - 0.01 in   Overcast
1:15 AM 46.4 °F 45.2 °F 44.6 °F 93% 29.83 in 10.0 mi SW 3.5 mph - 0.03 in   Overcast
1:35 AM 46.4 °F 42.9 °F 42.8 °F 87% 29.83 in 10.0 mi South 6.9 mph - 0.05 in   Mostly Cloudy
1:55 AM 44.6 °F 41.4 °F 42.8 °F 93% 29.83 in 10.0 mi SE 5.8 mph - 0.05 in   Mostly Cloudy
2:15 AM 44.6 °F 42.2 °F 42.8 °F 93% 29.83 in 10.0 mi East 4.6 mph - N/A   Scattered Clouds
2:35 AM 46.4 °F 44.3 °F 42.8 °F 87% 29.85 in 10.0 mi ESE 4.6 mph - N/A   Mostly Cloudy
2:55 AM 46.4 °F 42.9 °F 42.8 °F 87% 29.85 in 10.0 mi SSW 6.9 mph - 0.03 in   Overcast
3:15 AM 46.4 °F 41.5 °F 41.0 °F 81% 29.86 in 10.0 mi WSW 10.4 mph - 0.03 in   Overcast
3:35 AM 44.6 °F 39.7 °F 39.2 °F 81% 29.86 in 10.0 mi West 9.2 mph - 0.05 in   Overcast
3:55 AM 44.6 °F 41.4 °F 39.2 °F 81% 29.87 in 9.0 mi WSW 5.8 mph - 0.06 in   Overcast
4:15 AM 44.6 °F 42.2 °F 41.0 °F 87% 29.87 in 10.0 mi South 4.6 mph - 0.01 in   Overcast
4:35 AM 44.6 °F 40.2 °F 39.2 °F 81% 29.87 in 10.0 mi SSE 8.1 mph - 0.01 in   Scattered Clouds
4:55 AM 42.8 °F 39.3 °F 39.2 °F 87% 29.88 in 10.0 mi South 5.8 mph - 0.01 in   Partly Cloudy
5:15 AM 44.6 °F 39.7 °F 42.8 °F 93% 29.88 in 10.0 mi SSE 9.2 mph - N/A   Scattered Clouds
5:35 AM 44.6 °F 40.2 °F 39.2 °F 81% 29.88 in 10.0 mi SSE 8.1 mph - N/A   Partly Cloudy
5:55 AM 42.8 °F 38.0 °F 39.2 °F 87% 29.88 in 10.0 mi SSE 8.1 mph - N/A   Clear
6:15 AM 44.6 °F 39.7 °F 39.2 °F 81% 29.89 in 10.0 mi SSE 9.2 mph - N/A   Clear
6:35 AM 44.6 °F 40.7 °F 41.0 °F 87% 29.90 in 10.0 mi SSE 6.9 mph - N/A   Partly Cloudy
6:55 AM 44.6 °F 39.2 °F 42.8 °F 93% 29.91 in 10.0 mi SSE 10.4 mph - N/A   Mostly Cloudy
7:15 AM 44.6 °F 39.7 °F 42.8 °F 93% 29.91 in 10.0 mi SSE 9.2 mph - N/A   Mostly Cloudy
7:35 AM 46.4 °F 42.4 °F 42.8 °F 87% 29.92 in 10.0 mi SSE 8.1 mph - N/A   Overcast
7:55 AM 46.4 °F 41.5 °F 42.8 °F 87% 29.93 in 10.0 mi South 10.4 mph - N/A   Overcast
8:15 AM 46.4 °F - 42.8 °F 87% 29.94 in 10.0 mi Calm Calm - 0.01 in   Mostly Cloudy
8:55 AM 46.4 °F 45.2 °F 42.8 °F 87% 29.95 in 10.0 mi WNW 3.5 mph - 0.04 in   Mostly Cloudy
9:15 AM 46.4 °F 45.2 °F 42.8 °F 87% 29.95 in 10.0 mi WSW 3.5 mph - 0.01 in   Overcast
9:35 AM 46.4 °F - 42.8 °F 87% 29.96 in 10.0 mi Calm Calm - 0.02 in   Overcast
9:55 AM 46.4 °F 42.4 °F 42.8 °F 87% 29.98 in 5.0 mi NW 8.1 mph - 0.06 in   Mostly Cloudy
10:15 AM 48.2 °F - 46.4 °F 93% 29.97 in 10.0 mi SSW 4.6 mph - 0.02 in   Mostly Cloudy
10:35 AM 50.0 °F - 44.6 °F 82% 29.97 in 10.0 mi South 8.1 mph - 0.02 in   Mostly Cloudy
10:55 AM 51.8 °F - 42.8 °F 71% 29.99 in 10.0 mi West 10.4 mph - 0.02 in   Mostly Cloudy
11:15 AM 48.2 °F - 42.8 °F 82% 30.01 in 10.0 mi WSW 16.1 mph 20.7 mph 0.02 in   Overcast
11:35 AM 46.4 °F 41.5 °F 42.8 °F 87% 30.00 in 10.0 mi SW 10.4 mph - 0.03 in   Mostly Cloudy
11:55 AM 51.8 °F - 42.8 °F 71% 30.00 in 10.0 mi WSW 10.4 mph - 0.03 in   Scattered Clouds
12:15 PM 51.8 °F - 44.6 °F 76% 30.00 in 10.0 mi SW 12.7 mph - N/A   Scattered Clouds
12:35 PM 53.6 °F - 44.6 °F 72% 30.00 in 10.0 mi SSW 13.8 mph 18.4 mph N/A   Mostly Cloudy
1:15 PM 51.8 °F - 44.6 °F 76% 30.01 in 10.0 mi West 18.4 mph 24.2 mph N/A   Mostly Cloudy
1:35 PM 51.8 °F - 44.6 °F 76% 30.01 in 10.0 mi West 13.8 mph - N/A   Mostly Cloudy
1:55 PM 55.4 °F - 44.6 °F 67% 30.01 in 10.0 mi WSW 17.3 mph 23.0 mph N/A   Scattered Clouds
2:15 PM 51.8 °F - 42.8 °F 71% 30.03 in 10.0 mi SW 18.4 mph 34.5 mph N/A   Mostly Cloudy
2:35 PM 51.8 °F - 44.6 °F 76% 30.03 in 10.0 mi SW 13.8 mph - N/A   Mostly Cloudy
2:55 PM 55.4 °F - 46.4 °F 72% 30.03 in 10.0 mi SW 13.8 mph - N/A   Mostly Cloudy
3:15 PM 53.6 °F - 44.6 °F 72% 30.05 in 10.0 mi NW 12.7 mph 25.3 mph N/A   Overcast
3:35 PM 51.8 °F - 46.4 °F 82% 30.05 in 10.0 mi West 9.2 mph - N/A   Overcast
3:55 PM 53.6 °F - 42.8 °F 67% 30.05 in 10.0 mi WSW 9.2 mph - N/A   Scattered Clouds
4:15 PM 53.6 °F - 42.8 °F 67% 30.05 in 10.0 mi WNW 9.2 mph - N/A   Mostly Cloudy
4:35 PM 55.4 °F - 42.8 °F 63% 30.06 in 10.0 mi NNW 11.5 mph 16.1 mph N/A   Overcast
4:55 PM 51.8 °F - 42.8 °F 71% 30.06 in 10.0 mi NW 13.8 mph 20.7 mph N/A   Overcast
5:15 PM 51.8 °F - 42.8 °F 71% 30.07 in 10.0 mi NW 10.4 mph - N/A   Mostly Cloudy
5:35 PM 51.8 °F - 42.8 °F 71% 30.07 in 10.0 mi NW 6.9 mph - N/A   Overcast
5:55 PM 53.6 °F - 42.8 °F 67% 30.09 in 10.0 mi NNW 6.9 mph - N/A   Mostly Cloudy
6:15 PM 51.8 °F - 42.8 °F 71% 30.09 in 10.0 mi NW 10.4 mph - N/A   Overcast
6:35 PM 51.8 °F - 41.0 °F 67% 30.10 in 10.0 mi NW 6.9 mph - N/A   Overcast
6:55 PM 51.8 °F - 44.6 °F 76% 30.10 in 10.0 mi West 5.8 mph - N/A   Overcast
7:15 PM 51.8 °F - 41.0 °F 67% 30.11 in 10.0 mi WSW 6.9 mph - N/A   Mostly Cloudy
7:35 PM 50.0 °F - 42.8 °F 76% 30.12 in 10.0 mi SSW 4.6 mph - N/A   Mostly Cloudy
7:55 PM 48.2 °F - 41.0 °F 76% 30.12 in 10.0 mi SSW 6.9 mph - N/A   Mostly Cloudy
8:15 PM 46.4 °F 43.5 °F 41.0 °F 81% 30.13 in 10.0 mi SSW 5.8 mph - N/A   Mostly Cloudy
8:35 PM 46.4 °F 44.3 °F 39.2 °F 76% 30.14 in 10.0 mi SSW 4.6 mph - N/A   Mostly Cloudy
8:55 PM 46.4 °F 44.3 °F 41.0 °F 81% 30.15 in 10.0 mi North 4.6 mph - N/A   Mostly Cloudy
9:15 PM 46.4 °F 45.2 °F 42.8 °F 87% 30.16 in 10.0 mi NE 3.5 mph - N/A   Overcast
9:35 PM 46.4 °F 43.5 °F 42.8 °F 87% 30.17 in 10.0 mi North 5.8 mph - N/A   Overcast
9:55 PM 46.4 °F 44.3 °F 42.8 °F 87% 30.18 in 8.0 mi West 4.6 mph - 0.10 in   Overcast
10:15 PM 46.4 °F - 42.8 °F 87% 30.18 in 10.0 mi Calm Calm - N/A   Scattered Clouds
10:35 PM 44.6 °F - 42.8 °F 93% 30.19 in 10.0 mi Calm Calm - N/A   Partly Cloudy
10:55 PM 44.6 °F - 41.0 °F 87% 30.20 in 10.0 mi Calm Calm - N/A   Mostly Cloudy
11:15 PM 44.6 °F - 42.8 °F 93% 30.20 in 10.0 mi Calm Calm - N/A   Overcast
11:35 PM 46.4 °F - 42.8 °F 87% 30.20 in 10.0 mi Calm Calm - N/A   Overcast
11:55 PM 44.6 °F - 42.8 °F 93% 30.21 in 10.0 mi Calm Calm - N/A   Mostly Cloudy